Regional Weather Roundup
Issued by NWS

Home | Current Version | Previous Version | Text Only | Print | Product List | Glossary Off
Versions: 1 2 3 4 5 6 7 8 9 10 11 12 13 14 15 16 17 18 19 20 21 22 23 24 25 26 27 28 29 30 31 32 33 34 35 36 37 38 39 40 41 42 43 44 45 46 47 48 49 50

000
ASUS43 KFSD 110402
RWRSD

WEATHER ROUNDUP FOR SOUTH DAKOTA
NATIONAL WEATHER SERVICE SIOUX FALLS SD
1100 PM CDT THU JUL 10 2014

NOTE: "FAIR" INDICATES FEW OR NO CLOUDS BELOW 12,000 FEET WITH NO
SIGNIFICANT WEATHER AND/OR OBSTRUCTIONS TO VISIBILITY.


SDZ001>005-009-010-012>017-110500-
NORTHWEST AND NORTH CENTRAL SOUTH DAKOTA

CITY           SKY/WX    TMP DP  RH WIND       PRES   REMARKS
BUFFALO          N/A     73  66  78 S9        29.82R
FAITH            N/A     71  68  90 S8        29.87R
MOBRIDGE       CLEAR     69  65  86 E5        29.81R
$$

SDZ012>016-024>037-041>051-057-063-072>074-110500-
SOUTHWEST AND SOUTH CENTRAL SOUTH DAKOTA

CITY           SKY/WX    TMP DP  RH WIND       PRES   REMARKS
RAPID CTY ARPT MOCLDY    72  62  71 SW6       29.91F
PIERRE         PTCLDY    74  70  87 CALM      29.80R
CUSTER         MOCLDY    63  59  87 W6        30.09F
ELLSWORTH AFB  MOCLDY    73  62  68 SW8       29.91S
PHILIP         MOCLDY    75  69  81 SW6       29.84R
PINE RIDGE     LGT RAIN  67  64  90 SW15      29.94F
WINNER         MOCLDY    81  68  64 S18G28    29.85R
$$

SDZ004>011-016>023-039-040-110500-
NORTHEAST SOUTH DAKOTA

CITY           SKY/WX    TMP DP  RH WIND       PRES   REMARKS
ABERDEEN       MOCLDY    72  67  84 S12       29.82R
WATERTOWN      PTCLDY    73  66  78 S14       29.89R
SISSETON         N/A     71  68  90 S12       29.84R
$$

SDZ017-020-022-023-036>040-048>070-110500-
SOUTHEAST SOUTH DAKOTA

CITY           SKY/WX    TMP DP  RH WIND       PRES   REMARKS
SIOUX FALLS    MOCLDY    77  65  66 S22       29.92R
HURON          PTCLDY    79  67  66 S14G23    29.84R
CHAMBERLAIN    MOCLDY    78  68  73 S12G17    29.85R
MITCHELL       MOCLDY    79  68  69 S15       29.86R
YANKTON        PTCLDY    73  66  78 SE9       29.92R
$$

ABBREVIATIONS USED IN REMARKS
   TC - TEMPERATURE IN CELSIUS
  WCI - WIND CHILL INDEX
   HX - HEAT INDEX
  VSB - VISIBILITY



USA.gov is the U.S. government's official web portal to all federal, state and local government web resources and services.